WXM80 ListenWXM80 Stop

You find our weather info also at:

UK Metoffice

WeatherCloud

Weather Underground

Northeastern Weather Network

AWEKAS

Citizen Weather Observer Program (CWOP)

HAMweather, WeatherForYou, PWS Weather


Weather Underground History page Text

Daily Summary for July 30, 2017 Units:  Metric    English   Both
« Previous Day
Next Day »
Daily Weekly Monthly Yearly Custom
  High: Low: Average:
Temperature: 30 °C 17.3 °C 23 °C
Dew Point: 16.8 °C 12.1 °C 14.5 °C
Humidity: 81 % 35 % 61 %
Wind Speed: 12.9 km/h 0 km/h 4 km/h
Wind Gust: 22.2 km/h - -
Wind:- - SE
Pressure: 1016.1 hPa 1010.4 hPa -
Precipitation: 0 mm    
Historical Graphs
 
 
Tabular Data for July 30, 2017
Time Temperature Dew Point Pressure Wind Wind Speed Wind Gust Humidity Rainfall Rate (Hourly)
00:02 19.7 °C 14.9 °C 1010.4 hPa NNE 8 km/h 13 km/h 74 % 0 mm
00:07 19.6 °C 15 °C 1010.7 hPa ENE 7.9 km/h 12.9 km/h 75 % 0 mm
00:12 19.5 °C 14.7 °C 1010.4 hPa NNE 8.4 km/h 11.3 km/h 74 % 0 mm
00:17 19.4 °C 14.7 °C 1010.4 hPa North 8.9 km/h 11.1 km/h 74 % 0 mm
00:22 19.4 °C 14.6 °C 1010.4 hPa NNE 6.1 km/h 9.3 km/h 74 % 0 mm
00:25 19.4 °C 14.6 °C 1010.4 hPa NNE 4.8 km/h 13 km/h 74 % 0 mm
00:30 19.3 °C 14.8 °C 1010.4 hPa North 9 km/h 13 km/h 75 % 0 mm
00:35 19.3 °C 14.7 °C 1010.4 hPa NNE 3.9 km/h 7.4 km/h 75 % 0 mm
00:40 19.3 °C 14.5 °C 1010.7 hPa NE 6.1 km/h 9.7 km/h 74 % 0 mm
00:45 19.2 °C 14.4 °C 1010.4 hPa NNE 10.5 km/h 16.1 km/h 74 % 0 mm
00:50 19.2 °C 14.6 °C 1010.4 hPa North 9.8 km/h 14.5 km/h 75 % 0 mm
00:55 19.1 °C 14.6 °C 1010.4 hPa NNE 9.7 km/h 18.5 km/h 75 % 0 mm
01:00 19.1 °C 14.5 °C 1010.4 hPa North 9.2 km/h 13 km/h 75 % 0 mm
01:05 19.1 °C 14.5 °C 1010.4 hPa North 9.5 km/h 14.8 km/h 75 % 0 mm
01:10 19.1 °C 14.5 °C 1010.4 hPa NNE 5 km/h 11.1 km/h 75 % 0 mm
01:15 19 °C 14.4 °C 1010.4 hPa NNE 6.6 km/h 11.1 km/h 75 % 0 mm
01:20 19 °C 14.4 °C 1010.4 hPa NNE 10 km/h 16.7 km/h 75 % 0 mm
01:25 19 °C 14.4 °C 1010.4 hPa North 6.1 km/h 11.3 km/h 75 % 0 mm
01:30 18.9 °C 14.4 °C 1010.4 hPa NNE 7.4 km/h 14.8 km/h 75 % 0 mm
01:35 18.9 °C 14.4 °C 1010.4 hPa NNE 6.1 km/h 13 km/h 75 % 0 mm
01:40 18.9 °C 14.3 °C 1010.4 hPa North 7.7 km/h 8 km/h 75 % 0 mm
01:45 18.9 °C 14.3 °C 1010.4 hPa North 10.5 km/h 14.8 km/h 75 % 0 mm
01:47 18.9 °C 14.3 °C 1010.4 hPa North 8.4 km/h 18.5 km/h 75 % 0 mm
01:52 18.9 °C 14.3 °C 1010.4 hPa NE 9.8 km/h 18.5 km/h 75 % 0 mm
01:57 18.8 °C 14.1 °C 1010.4 hPa NE 12.7 km/h 16.7 km/h 74 % 0 mm
02:02 18.8 °C 14.3 °C 1010.4 hPa North 10 km/h 16.7 km/h 75 % 0 mm
02:07 18.8 °C 14.5 °C 1010.4 hPa North 6.4 km/h 9.3 km/h 76 % 0 mm
02:12 18.8 °C 14.5 °C 1010.4 hPa NNE 6.8 km/h 9.3 km/h 76 % 0 mm
02:17 18.8 °C 14.7 °C 1010.4 hPa North 7.1 km/h 11.1 km/h 77 % 0 mm
02:22 18.8 °C 14.4 °C 1010.4 hPa North 8 km/h 16.7 km/h 76 % 0 mm
02:27 18.8 °C 14.3 °C 1010.4 hPa NNW 8.2 km/h 16.7 km/h 75 % 0 mm
02:37 18.8 °C 14.3 °C 1010.4 hPa North 9.8 km/h 14.8 km/h 75 % 0 mm
02:42 18.8 °C 14.3 °C 1010.4 hPa North 10.9 km/h 16.7 km/h 75 % 0 mm
02:47 18.8 °C 14.3 °C 1010.4 hPa NNE 6.1 km/h 11.1 km/h 75 % 0 mm
02:52 18.8 °C 14.1 °C 1010.4 hPa NNE 12.9 km/h 22.2 km/h 74 % 0 mm
02:57 18.8 °C 14.5 °C 1010.4 hPa North 9.2 km/h 13 km/h 76 % 0 mm
03:02 18.8 °C 14.4 °C 1010.4 hPa NNE 6.1 km/h 9.7 km/h 76 % 0 mm
03:07 18.7 °C 14.4 °C 1010.7 hPa North 9.5 km/h 14.8 km/h 76 % 0 mm
03:12 18.7 °C 14.3 °C 1010.7 hPa NNE 9.2 km/h 11.1 km/h 76 % 0 mm
03:17 18.6 °C 14.1 °C 1010.7 hPa North 5.5 km/h 7.4 km/h 75 % 0 mm
03:22 18.6 °C 14.3 °C 1010.7 hPa NNE 6.8 km/h 13 km/h 76 % 0 mm
03:27 18.6 °C 14.1 °C 1010.7 hPa NNE 6.6 km/h 9.3 km/h 75 % 0 mm
03:32 18.6 °C 13.8 °C 1010.7 hPa North 10.5 km/h 22.2 km/h 74 % 0 mm
03:37 18.5 °C 13.6 °C 1010.7 hPa NNE 9.5 km/h 14.5 km/h 73 % 0 mm
03:42 18.5 °C 13.8 °C 1010.7 hPa NE 8.5 km/h 12.9 km/h 74 % 0 mm
03:47 18.5 °C 13.8 °C 1010.7 hPa NNE 4.8 km/h 9.7 km/h 74 % 0 mm
03:52 18.4 °C 13.7 °C 1010.7 hPa NNE 9.8 km/h 14.8 km/h 74 % 0 mm
03:57 18.4 °C 13.7 °C 1010.7 hPa NNE 4.5 km/h 9.3 km/h 74 % 0 mm
04:03 18.4 °C 13.7 °C 1011.1 hPa North 9.2 km/h 16.7 km/h 74 % 0 mm
04:08 18.3 °C 13.6 °C 1011.1 hPa North 10.5 km/h 16.7 km/h 74 % 0 mm
04:13 18.3 °C 13.8 °C 1011.1 hPa NNE 8.4 km/h 13 km/h 75 % 0 mm
04:18 18.3 °C 13.8 °C 1011.1 hPa NNW 5.3 km/h 9.3 km/h 75 % 0 mm
04:23 18.3 °C 13.8 °C 1011.1 hPa NE 10.9 km/h 16.7 km/h 75 % 0 mm
04:28 18.3 °C 13.8 °C 1011.1 hPa NNE 8.2 km/h 9.7 km/h 75 % 0 mm
04:33 18.2 °C 13.9 °C 1011.1 hPa NNE 8.4 km/h 14.8 km/h 76 % 0 mm
04:38 18.2 °C 14.1 °C 1011.4 hPa North 11.3 km/h 16.7 km/h 77 % 0 mm
04:43 18.1 °C 13.8 °C 1011.4 hPa North 9.5 km/h 18.5 km/h 76 % 0 mm
04:48 18.1 °C 13.9 °C 1011.4 hPa North 10.9 km/h 16.7 km/h 77 % 0 mm
04:54 17.9 °C 14.1 °C 1011.4 hPa North 5.3 km/h 16.7 km/h 78 % 0 mm
04:59 17.9 °C 13.8 °C 1011.4 hPa NNE 4.8 km/h 13 km/h 77 % 0 mm
05:04 17.8 °C 13.9 °C 1011.4 hPa NNE 5 km/h 11.1 km/h 78 % 0 mm
05:09 17.7 °C 13.6 °C 1011.7 hPa NNE 6.1 km/h 9.3 km/h 77 % 0 mm
05:14 17.7 °C 13.8 °C 1011.7 hPa NNE 10.9 km/h 16.7 km/h 78 % 0 mm
05:19 17.7 °C 14 °C 1011.4 hPa North 4.3 km/h 7.4 km/h 79 % 0 mm
05:24 17.6 °C 13.9 °C 1011.7 hPa North 9.3 km/h 16.7 km/h 79 % 0 mm
05:29 17.6 °C 13.9 °C 1011.4 hPa NNE 9.8 km/h 14.8 km/h 79 % 0 mm
05:34 17.6 °C 13.9 °C 1011.7 hPa NNE 7.7 km/h 13 km/h 79 % 0 mm
05:39 17.5 °C 13.8 °C 1011.7 hPa North 6.1 km/h 9.3 km/h 79 % 0 mm
05:44 17.5 °C 14 °C 1011.7 hPa North 6.4 km/h 9.7 km/h 80 % 0 mm
05:49 17.4 °C 13.8 °C 1012.1 hPa NNE 7.7 km/h 14.8 km/h 79 % 0 mm
05:54 17.4 °C 13.9 °C 1012.1 hPa NNE 5 km/h 9.7 km/h 80 % 0 mm
05:59 17.4 °C 13.9 °C 1012.1 hPa North 8.9 km/h 14.5 km/h 80 % 0 mm
06:04 17.4 °C 13.9 °C 1012.1 hPa ENE 4.8 km/h 11.1 km/h 80 % 0 mm
06:09 17.3 °C 13.8 °C 1012.1 hPa North 6.3 km/h 8 km/h 80 % 0 mm
06:14 17.3 °C 13.8 °C 1012.1 hPa NNE 4 km/h 13 km/h 80 % 0 mm
06:19 17.3 °C 14.1 °C 1012.4 hPa NNE 6.4 km/h 9.3 km/h 81 % 0 mm
06:29 17.3 °C 13.8 °C 1012.4 hPa NNE 10 km/h 18.5 km/h 80 % 0 mm
06:34 17.4 °C 13.9 °C 1012.4 hPa North 4.3 km/h 14.8 km/h 80 % 0 mm
06:39 17.4 °C 13.9 °C 1012.4 hPa NE 5 km/h 9.3 km/h 80 % 0 mm
06:44 17.6 °C 14.1 °C 1012.4 hPa North 7.4 km/h 13 km/h 80 % 0 mm
06:47 17.6 °C 13.9 °C 1012.4 hPa NNE 6.1 km/h 9.7 km/h 79 % 0 mm
06:52 17.7 °C 14.1 °C 1012.4 hPa North 7.6 km/h 13 km/h 79 % 0 mm
06:57 17.8 °C 13.9 °C 1012.8 hPa North 9.7 km/h 14.8 km/h 78 % 0 mm
07:03 18 °C 13.9 °C 1012.8 hPa NNE 7.7 km/h 16.7 km/h 77 % 0 mm
07:08 18.2 °C 14.1 °C 1013.1 hPa North 5 km/h 9.3 km/h 77 % 0 mm
07:13 18.4 °C 14.3 °C 1013.1 hPa NNE 8.2 km/h 18.5 km/h 77 % 0 mm
07:18 18.6 °C 14.2 °C 1013.1 hPa NE 7.4 km/h 14.8 km/h 76 % 0 mm
07:23 18.8 °C 14.4 °C 1013.1 hPa North 9.7 km/h 16.7 km/h 76 % 0 mm
07:28 18.9 °C 14.6 °C 1013.1 hPa North 5.5 km/h 13 km/h 76 % 0 mm
07:33 19.1 °C 14.7 °C 1013.1 hPa NE 7.1 km/h 13 km/h 76 % 0 mm
07:38 19.2 °C 14.8 °C 1013.1 hPa North 8.5 km/h 14.8 km/h 76 % 0 mm
07:43 19.3 °C 14.5 °C 1013.1 hPa NNE 9.3 km/h 14.8 km/h 74 % 0 mm
07:44 19.3 °C 14.5 °C 1013.1 hPa NNE 3.9 km/h 9.3 km/h 74 % 0 mm
07:49 19.3 °C 14.3 °C 1013.1 hPa NNE 6.4 km/h 13 km/h 73 % 0 mm
07:54 19.3 °C 14.1 °C 1013.4 hPa NNE 7.6 km/h 13 km/h 72 % 0 mm
07:59 19.2 °C 14.3 °C 1013.4 hPa North 4.5 km/h 9.3 km/h 73 % 0 mm
08:04 19.3 °C 14.3 °C 1013.4 hPa NNE 6.4 km/h 9.3 km/h 73 % 0 mm
08:09 19.2 °C 14.3 °C 1013.4 hPa ENE 8.9 km/h 13 km/h 73 % 0 mm
08:14 19.2 °C 14.3 °C 1013.4 hPa NNE 4.7 km/h 9.3 km/h 73 % 0 mm
08:19 19.2 °C 14.3 °C 1013.4 hPa NNW 8.5 km/h 13 km/h 73 % 0 mm
08:24 19.2 °C 14.3 °C 1013.4 hPa NNE 9.2 km/h 13 km/h 73 % 0 mm
08:29 19.3 °C 14.4 °C 1013.8 hPa NNE 4.3 km/h 5.6 km/h 73 % 0 mm
08:34 19.4 °C 14.2 °C 1013.4 hPa North 3.5 km/h 13 km/h 72 % 0 mm
08:39 19.6 °C 14.6 °C 1013.4 hPa North 4.2 km/h 9.7 km/h 73 % 0 mm
08:44 19.6 °C 14.4 °C 1013.8 hPa NNW 6.1 km/h 9.3 km/h 72 % 0 mm
08:49 19.7 °C 14.5 °C 1013.4 hPa NE 8.2 km/h 13 km/h 72 % 0 mm
08:54 19.7 °C 14.3 °C 1013.4 hPa NNE 9.7 km/h 12.9 km/h 71 % 0 mm
08:59 19.7 °C 14.6 °C 1013.8 hPa NNW 6.9 km/h 13 km/h 72 % 0 mm
09:01 19.8 °C 14.4 °C 1013.8 hPa NNE 8.9 km/h 13 km/h 71 % 0 mm
09:06 19.8 °C 14.4 °C 1013.8 hPa NE 9.3 km/h 13 km/h 71 % 0 mm
09:11 19.9 °C 14.7 °C 1013.8 hPa NNW 3.1 km/h 13 km/h 72 % 0 mm
09:16 20 °C 14.8 °C 1013.8 hPa SSE 3.4 km/h 7.4 km/h 72 % 0 mm
09:21 20.1 °C 14.6 °C 1013.8 hPa North 3.7 km/h 5.6 km/h 71 % 0 mm
09:26 20.1 °C 14.7 °C 1013.8 hPa North 4.2 km/h 11.1 km/h 71 % 0 mm
09:31 20.2 °C 14.7 °C 1013.8 hPa NE 3.9 km/h 14.5 km/h 71 % 0 mm
09:36 20.2 °C 14.6 °C 1013.8 hPa North 3.2 km/h 6.4 km/h 70 % 0 mm
09:41 20.3 °C 14.7 °C 1014.1 hPa NE 8.4 km/h 9.7 km/h 70 % 0 mm
09:43 20.4 °C 14.7 °C 1013.8 hPa NNE 3.1 km/h 11.1 km/h 70 % 0 mm
09:48 20.6 °C 14.7 °C 1013.8 hPa NNE 6.9 km/h 11.3 km/h 69 % 0 mm
09:53 20.7 °C 14.8 °C 1013.8 hPa NNE 2.1 km/h 3.7 km/h 69 % 0 mm
09:58 20.9 °C 15 °C 1014.1 hPa NE 2.9 km/h 11.1 km/h 69 % 0 mm
10:03 21.2 °C 15.3 °C 1014.1 hPa NE 6.4 km/h 11.1 km/h 69 % 0 mm
10:08 21.7 °C 14.8 °C 1014.1 hPa North 3.1 km/h 9.7 km/h 65 % 0 mm
10:13 22.2 °C 15.5 °C 1014.1 hPa NNW 1.3 km/h 5.6 km/h 66 % 0 mm
10:18 22.7 °C 15 °C 1014.1 hPa ENE 4.8 km/h 11.3 km/h 62 % 0 mm
10:23 23.2 °C 15.7 °C 1014.1 hPa North 3.5 km/h 9.3 km/h 63 % 0 mm
10:28 23.7 °C 15.9 °C 1014.1 hPa North 2.4 km/h 5.6 km/h 62 % 0 mm
10:33 24.2 °C 15.7 °C 1014.1 hPa NE 5.3 km/h 7.4 km/h 59 % 0 mm
10:38 24.7 °C 16.2 °C 1014.1 hPa NNE 7.2 km/h 11.1 km/h 59 % 0 mm
10:43 25.2 °C 16.6 °C 1014.1 hPa NE 2.4 km/h 3.7 km/h 59 % 0 mm
10:48 25.7 °C 16.8 °C 1014.1 hPa NNE 4.5 km/h 7.4 km/h 58 % 0 mm
10:58 26.3 °C 16.3 °C 1014.1 hPa North 3.1 km/h 6.4 km/h 54 % 0 mm
11:03 26.7 °C 16 °C 1014.4 hPa ENE 4.3 km/h 5.6 km/h 52 % 0 mm
11:08 26.8 °C 16.4 °C 1014.4 hPa NE 1.8 km/h 3.7 km/h 53 % 0 mm
11:13 27 °C 16.6 °C 1014.1 hPa NNW 4.2 km/h 5.6 km/h 53 % 0 mm
11:18 27.2 °C 16.8 °C 1014.4 hPa North 6 km/h 7.4 km/h 53 % 0 mm
11:23 27.4 °C 16.7 °C 1014.4 hPa NE 0.6 km/h 1.9 km/h 52 % 0 mm
11:29 27.6 °C 16.2 °C 1014.4 hPa North 3.7 km/h 7.4 km/h 50 % 0 mm
11:34 27.7 °C 15.7 °C 1014.4 hPa ENE 2.3 km/h 5.6 km/h 48 % 0 mm
11:39 27.8 °C 16.1 °C 1014.4 hPa NNW 4 km/h 9.3 km/h 49 % 0 mm
11:44 27.8 °C 15.8 °C 1014.4 hPa ENE 2.3 km/h 6.4 km/h 48 % 0 mm
11:49 27.8 °C 16.1 °C 1014.4 hPa SE 0.2 km/h 1.9 km/h 49 % 0 mm
11:54 27.9 °C 15.9 °C 1014.4 hPa NE 2.9 km/h 5.6 km/h 48 % 0 mm
11:59 27.9 °C 15.2 °C 1014.4 hPa NE 1.6 km/h 3.7 km/h 46 % 0 mm
12:04 28 °C 14.3 °C 1014.4 hPa NNE 4 km/h 5.6 km/h 43 % 0 mm
12:09 27.9 °C 13.4 °C 1014.4 hPa ENE 4.7 km/h 8 km/h 41 % 0 mm
12:14 27.8 °C 15.1 °C 1014.8 hPa NNE 2.9 km/h 7.4 km/h 46 % 0 mm
12:19 28.1 °C 15.7 °C 1014.8 hPa Calm     47 % 0 mm
12:24 28.3 °C 14.6 °C 1014.8 hPa NE 1.8 km/h 5.6 km/h 43 % 0 mm
12:29 28.5 °C 14.7 °C 1014.8 hPa NNE 1.8 km/h 5.6 km/h 43 % 0 mm
12:34 28.6 °C 15.5 °C 1014.8 hPa Calm   3.7 km/h 45 % 0 mm
12:36 28.7 °C 15.6 °C 1014.8 hPa NNW 5.1 km/h 7.4 km/h 45 % 0 mm
12:42 28.8 °C 14.6 °C 1014.8 hPa North 3.9 km/h 7.4 km/h 42 % 0 mm
12:47 28.8 °C 13.9 °C 1014.8 hPa NNE 0.2 km/h 1.9 km/h 40 % 0 mm
12:52 28.8 °C 14.6 °C 1014.8 hPa NNE 1.3 km/h 3.7 km/h 42 % 0 mm
12:57 28.9 °C 14.3 °C 1014.8 hPa NNE 0.6 km/h 5.6 km/h 41 % 0 mm
13:02 28.9 °C 13.6 °C 1014.8 hPa ENE 1.6 km/h 5.6 km/h 39 % 0 mm
13:07 28.8 °C 15.4 °C 1014.8 hPa NE 1.3 km/h 3.7 km/h 44 % 0 mm
13:12 28.9 °C 15.1 °C 1014.8 hPa Calm   1.6 km/h 43 % 0 mm
13:17 29.1 °C 14.1 °C 1014.8 hPa NE 2.1 km/h 5.6 km/h 40 % 0 mm
13:22 29.1 °C 13.3 °C 1014.8 hPa NNW 0.2 km/h 1.9 km/h 38 % 0 mm
13:27 29 °C 13.7 °C 1014.8 hPa NNE 0.6 km/h 5.6 km/h 39 % 0 mm
13:32 29.1 °C 14.1 °C 1014.8 hPa ENE 0.2 km/h 1.9 km/h 40 % 0 mm
13:37 29.2 °C 14.9 °C 1014.8 hPa NE 0.8 km/h 3.7 km/h 42 % 0 mm
13:42 29.2 °C 14.2 °C 1014.8 hPa ENE 1 km/h 1.9 km/h 40 % 0 mm
13:47 29.2 °C 13.1 °C 1014.8 hPa ENE 1.4 km/h 3.7 km/h 37 % 0 mm
13:52 29.2 °C 13.4 °C 1014.8 hPa NNE 0.2 km/h 1.9 km/h 38 % 0 mm
13:57 29.2 °C 14.2 °C 1014.8 hPa Calm   1.6 km/h 40 % 0 mm
14:02 29.2 °C 12.6 °C 1014.8 hPa NNE 1.4 km/h 3.7 km/h 36 % 0 mm
14:07 29.1 °C 12.9 °C 1014.8 hPa ENE 0.8 km/h 3.7 km/h 37 % 0 mm
14:13 29.1 °C 13.3 °C 1014.8 hPa NE 0.2 km/h 1.9 km/h 38 % 0 mm
14:18 29.2 °C 12.1 °C 1014.8 hPa Calm   5.6 km/h 35 % 0 mm
14:23 29.2 °C 12.6 °C 1014.8 hPa NNW 2.6 km/h 5.6 km/h 36 % 0 mm
14:28 29.2 °C 13.1 °C 1014.8 hPa Calm   1.9 km/h 37 % 0 mm
14:33 29.2 °C 13.4 °C 1014.8 hPa East 0.2 km/h 1.9 km/h 38 % 0 mm
14:35 29.2 °C 13.4 °C 1014.8 hPa Calm     38 % 0 mm
14:40 29.3 °C 13.1 °C 1014.8 hPa NE 2.3 km/h 5.6 km/h 37 % 0 mm
14:45 29.4 °C 14.1 °C 1014.8 hPa North 3.2 km/h 6.4 km/h 39 % 0 mm
14:50 29.6 °C 14.1 °C 1014.8 hPa NNW 2.1 km/h 6.4 km/h 39 % 0 mm
14:55 29.7 °C 14.3 °C 1014.8 hPa NNW 1.6 km/h 4.8 km/h 39 % 0 mm
15:00 29.8 °C 14.3 °C 1014.8 hPa North 2.6 km/h 4.8 km/h 39 % 0 mm
15:06 29.8 °C 13.9 °C 1014.8 hPa NNE 1.6 km/h 8 km/h 38 % 0 mm
15:11 29.9 °C 14.1 °C 1014.8 hPa WNW 2.4 km/h 7.4 km/h 38 % 0 mm
15:16 29.9 °C 14.4 °C 1014.4 hPa West 0.5 km/h 3.2 km/h 39 % 0 mm
15:21 29.8 °C 14.3 °C 1014.8 hPa North 1.3 km/h 5.6 km/h 39 % 0 mm
15:26 29.8 °C 14.7 °C 1014.4 hPa WNW 2.6 km/h 5.6 km/h 40 % 0 mm
15:31 29.8 °C 14 °C 1014.4 hPa Calm   6.4 km/h 38 % 0 mm
15:36 29.9 °C 14.8 °C 1014.4 hPa WNW 1.6 km/h 6.4 km/h 40 % 0 mm
15:41 29.9 °C 14.8 °C 1014.4 hPa West 3.2 km/h 6.4 km/h 40 % 0 mm
15:46 29.9 °C 15.3 °C 1014.4 hPa West 4.8 km/h 9.7 km/h 41 % 0 mm
15:51 29.9 °C 14.5 °C 1014.4 hPa WNW 1.6 km/h 8 km/h 39 % 0 mm
15:56 29.9 °C 14.5 °C 1014.4 hPa WSW 4.8 km/h 8 km/h 39 % 0 mm
16:01 29.9 °C 14.9 °C 1014.4 hPa WNW 0.2 km/h 3.7 km/h 40 % 0 mm
16:06 29.9 °C 14.1 °C 1014.4 hPa WSW 0.3 km/h 1.9 km/h 38 % 0 mm
16:11 30 °C 14.6 °C 1014.4 hPa WNW 3.1 km/h 5.6 km/h 39 % 0 mm
16:16 29.9 °C 15.2 °C 1014.4 hPa SW 2.9 km/h 7.4 km/h 41 % 0 mm
16:21 29.9 °C 14.8 °C 1014.4 hPa WSW 1.1 km/h 6.4 km/h 40 % 0 mm
16:26 29.8 °C 14.4 °C 1014.4 hPa WSW 4.7 km/h 7.4 km/h 39 % 0 mm
16:31 29.8 °C 15.1 °C 1014.4 hPa WSW 3.4 km/h 5.6 km/h 41 % 0 mm
16:35 29.7 °C 14.3 °C 1014.4 hPa West 4.8 km/h 9.3 km/h 39 % 0 mm
16:40 29.7 °C 15 °C 1014.4 hPa WNW 3.9 km/h 5.6 km/h 41 % 0 mm
16:45 29.6 °C 14.9 °C 1014.4 hPa WNW 2.9 km/h 9.3 km/h 41 % 0 mm
16:50 29.6 °C 15.3 °C 1014.4 hPa SW 5.1 km/h 7.4 km/h 42 % 0 mm
16:55 29.6 °C 14.9 °C 1014.4 hPa SW 3.7 km/h 5.6 km/h 41 % 0 mm
17:00 29.4 °C 14.8 °C 1014.4 hPa West 2.4 km/h 7.4 km/h 41 % 0 mm
17:05 29.4 °C 15.2 °C 1014.4 hPa North 0.2 km/h 1.9 km/h 42 % 0 mm
17:10 29.3 °C 15.1 °C 1014.4 hPa SW 4.3 km/h 9.7 km/h 42 % 0 mm
17:15 29.3 °C 15.4 °C 1014.4 hPa WNW 1.9 km/h 5.6 km/h 43 % 0 mm
17:20 29.1 °C 15.2 °C 1014.4 hPa West 1.8 km/h 5.6 km/h 43 % 0 mm
17:25 28.9 °C 15.4 °C 1014.4 hPa SW 0.3 km/h 3.7 km/h 44 % 0 mm
17:30 28.8 °C 15.3 °C 1014.4 hPa WSW 2.6 km/h 6.4 km/h 44 % 0 mm
17:35 28.7 °C 14.8 °C 1014.4 hPa SW 4.7 km/h 6.4 km/h 43 % 0 mm
17:40 28.5 °C 15.1 °C 1014.4 hPa SSW 1.1 km/h 5.6 km/h 44 % 0 mm
17:45 28.3 °C 14.9 °C 1014.4 hPa SW 1.8 km/h 3.7 km/h 44 % 0 mm
17:50 28.2 °C 14.4 °C 1014.4 hPa WSW 3.9 km/h 8 km/h 43 % 0 mm
17:55 27.9 °C 14.6 °C 1014.4 hPa SW 4.2 km/h 6.4 km/h 44 % 0 mm
18:00 27.8 °C 14.8 °C 1014.4 hPa SW 1.3 km/h 6.4 km/h 45 % 0 mm
18:05 27.6 °C 14.3 °C 1014.4 hPa WNW 1.8 km/h 7.4 km/h 44 % 0 mm
18:10 27.5 °C 14.8 °C 1014.4 hPa WSW 2.7 km/h 8 km/h 46 % 0 mm
18:15 27.3 °C 14.3 °C 1014.4 hPa West 1 km/h 5.6 km/h 45 % 0 mm
18:20 27.2 °C 14.3 °C 1014.4 hPa WSW 4 km/h 7.4 km/h 45 % 0 mm
18:25 27.1 °C 14.1 °C 1014.4 hPa SW 4.7 km/h 7.4 km/h 45 % 0 mm
18:30 27 °C 14.4 °C 1014.4 hPa West 4.8 km/h 6.4 km/h 46 % 0 mm
18:35 26.9 °C 14.6 °C 1014.4 hPa WSW 3.7 km/h 7.4 km/h 47 % 0 mm
18:40 26.8 °C 14.5 °C 1014.4 hPa West 6.3 km/h 6.4 km/h 47 % 0 mm
18:45 26.7 °C 14.7 °C 1014.4 hPa West 5 km/h 5.6 km/h 48 % 0 mm
18:51 26.6 °C 14.7 °C 1014.4 hPa West 2.1 km/h 5.6 km/h 48 % 0 mm
18:56 26.6 °C 14.9 °C 1014.4 hPa WSW 1 km/h 3.2 km/h 49 % 0 mm
19:00 26.5 °C 14.9 °C 1014.4 hPa WSW 3.4 km/h 5.6 km/h 49 % 0 mm
19:05 26.4 °C 14.8 °C 1014.4 hPa WSW 3.1 km/h 3.7 km/h 49 % 0 mm
19:10 26.4 °C 14.8 °C 1014.1 hPa WSW 1.9 km/h 4.8 km/h 49 % 0 mm
19:16 26.3 °C 15.1 °C 1014.4 hPa WSW 1.6 km/h 4.8 km/h 50 % 0 mm
19:21 26.2 °C 14.7 °C 1014.4 hPa Calm     49 % 0 mm
19:26 26.2 °C 14.6 °C 1014.4 hPa Calm   1.6 km/h 49 % 0 mm
19:31 26.1 °C 14.5 °C 1014.4 hPa Calm   3.2 km/h 49 % 0 mm
19:36 25.9 °C 14.7 °C 1014.8 hPa Calm   1.9 km/h 50 % 0 mm
19:41 25.8 °C 14.6 °C 1014.8 hPa Calm   4.8 km/h 50 % 0 mm
19:46 25.6 °C 14.7 °C 1014.8 hPa NNW 0.2 km/h 1.9 km/h 51 % 0 mm
19:51 25.4 °C 14.9 °C 1014.8 hPa Calm     52 % 0 mm
19:56 25.2 °C 15 °C 1014.8 hPa Calm   1.6 km/h 53 % 0 mm
20:01 25 °C 15.3 °C 1015.1 hPa Calm     55 % 0 mm
20:06 24.8 °C 15.4 °C 1015.1 hPa Calm     56 % 0 mm
20:11 24.6 °C 15.7 °C 1015.1 hPa Calm   1.6 km/h 58 % 0 mm
20:16 24.3 °C 15.8 °C 1015.1 hPa Calm     59 % 0 mm
20:21 24.1 °C 15.8 °C 1015.1 hPa Calm     60 % 0 mm
20:26 23.8 °C 16.1 °C 1015.1 hPa Calm   1.6 km/h 62 % 0 mm
20:36 23.4 °C 15.2 °C 1015.5 hPa Calm   1.6 km/h 60 % 0 mm
20:41 23.3 °C 15.1 °C 1015.5 hPa Calm   1.6 km/h 60 % 0 mm
20:46 23.1 °C 14.9 °C 1015.5 hPa Calm   3.2 km/h 60 % 0 mm
20:51 22.9 °C 15.2 °C 1015.5 hPa Calm   1.6 km/h 62 % 0 mm
20:56 22.7 °C 15.3 °C 1015.5 hPa Calm   3.2 km/h 63 % 0 mm
21:01 22.4 °C 14.8 °C 1015.5 hPa Calm     62 % 0 mm
21:06 22.3 °C 14.7 °C 1015.5 hPa WNW 1.4 km/h 3.7 km/h 62 % 0 mm
21:11 22.1 °C 14.5 °C 1015.5 hPa West 4 km/h 5.6 km/h 62 % 0 mm
21:16 21.9 °C 14.3 °C 1015.5 hPa West 0.6 km/h 3.7 km/h 62 % 0 mm
21:21 21.8 °C 14.2 °C 1015.8 hPa Calm     62 % 0 mm
21:26 21.7 °C 14.3 °C 1015.8 hPa Calm     63 % 0 mm
21:31 21.6 °C 14.4 °C 1015.8 hPa Calm     64 % 0 mm
21:36 21.4 °C 14.3 °C 1015.8 hPa West 0.6 km/h 1.9 km/h 64 % 0 mm
21:41 21.3 °C 14.2 °C 1016.1 hPa Calm     64 % 0 mm
21:46 21.2 °C 14.3 °C 1016.1 hPa Calm     65 % 0 mm
21:51 21.1 °C 14.2 °C 1016.1 hPa Calm     65 % 0 mm
21:56 20.9 °C 14.3 °C 1015.8 hPa West 0.2 km/h 1.6 km/h 66 % 0 mm
22:01 20.8 °C 14.2 °C 1016.1 hPa Calm   1.9 km/h 66 % 0 mm
22:06 20.6 °C 14.1 °C 1016.1 hPa West 1.3 km/h 3.7 km/h 66 % 0 mm
22:11 20.5 °C 14.2 °C 1016.1 hPa West 0.8 km/h 1.9 km/h 67 % 0 mm
22:16 20.3 °C 14 °C 1016.1 hPa Calm   1.9 km/h 67 % 0 mm
22:21 20.3 °C 13.9 °C 1016.1 hPa Calm     67 % 0 mm
22:26 20.2 °C 14.1 °C 1016.1 hPa Calm   1.9 km/h 68 % 0 mm
22:31 20.1 °C 13.9 °C 1016.1 hPa Calm   1.9 km/h 68 % 0 mm
22:36 19.9 °C 13.8 °C 1016.1 hPa West 0.5 km/h 1.9 km/h 68 % 0 mm
22:41 19.9 °C 13.8 °C 1016.1 hPa Calm     68 % 0 mm
22:46 19.8 °C 13.7 °C 1016.1 hPa West 2.1 km/h 2.1 km/h 68 % 0 mm
22:52 19.7 °C 13.7 °C 1016.1 hPa West 0.6 km/h 1.9 km/h 68 % 0 mm
22:57 19.6 °C 13.6 °C 1016.1 hPa Calm     68 % 0 mm
23:02 19.6 °C 13.7 °C 1016.1 hPa West 0.2 km/h 3.7 km/h 69 % 0 mm
23:07 19.5 °C 13.7 °C 1016.1 hPa Calm   1.9 km/h 69 % 0 mm
23:12 19.4 °C 13.8 °C 1016.1 hPa West 1.4 km/h 4.8 km/h 70 % 0 mm
23:17 19.4 °C 13.8 °C 1016.1 hPa West 0.8 km/h 3.2 km/h 70 % 0 mm
23:22 19.4 °C 14 °C 1016.1 hPa Calm     71 % 0 mm
23:27 19.4 °C 14.2 °C 1016.1 hPa West 1.8 km/h 5.6 km/h 72 % 0 mm
23:32 19.4 °C 14.4 °C 1016.1 hPa SW 2.3 km/h 9.3 km/h 73 % 0 mm
23:37 19.4 °C 14.4 °C 1016.1 hPa WSW 1.9 km/h 9.3 km/h 73 % 0 mm
23:42 19.4 °C 14.4 °C 1016.1 hPa WSW 1.4 km/h 3.7 km/h 73 % 0 mm
23:47 19.4 °C 14.7 °C 1016.1 hPa WSW 0.3 km/h 1.9 km/h 74 % 0 mm
23:52 19.5 °C 14.7 °C 1016.1 hPa WSW 0.3 km/h 1.9 km/h 74 % 0 mm
23:57 19.5 °C 14.7 °C 1016.1 hPa Calm     74 % 0 mm
Crab Meadow Weather
Compliments of Weather Underground - 3 mb

Script developed by  Jim McMurry - jmcmurry@mwt.net Adapted for the template by  Wim van der Kuil - Leuven-Template.eu

Recycling: Americans threw away 38 billion plastic water bottles in 2006. A million and a half barrels of oil - enough to fuel 100,000 cars for a year - were used to produce the bottles.